M I D A S
Marine Information and Data Acquisition System
Tripno 1468 of the Zeeleeuw from 2008-04-29 07:10:44 to 2008-04-29 11:47:07
Back to CruiseResearch ActivitiesStationsMapUnderway DataData graphs

EquipmentUnitsComment
TimeDGPSUTC
LatitudeDGPSDM.mWGS84
LongitudeDGPSDM.mWGS84
TemperatureSBE03/SBE38deg celciusITS90
ConductivitySBE21S/mITS90
SalinitySBE21 Practical Salinity Units
ChlorophylAChelsea fluorimeterg/lCalibrated in Aceton
Missing or incorrect values are displayed as -999
Sea surface data collected by the RV Zeeleeuw from 2008-04-29 07:11:35 to 2008-04-29 11:57:39
Time Latitude Longitude Temperature Conductivity Salinity ChlorophylA
2008-04-29 07:12:40 51°13.681 2°55.893 18.7903 0.088105 0.459326 -1.697049
2008-04-29 07:13:41 51°13.692 2°55.794 18.825 0.088105 0.459447 -1.697049
2008-04-29 07:14:40 51°13.69 2°55.742 18.8092 0.088105 0.459675 -1.697049
2008-04-29 07:15:40 51°13.698 2°55.735 18.9442 0.088105 0.459652 -1.697049
2008-04-29 07:16:41 51°13.765 2°55.694 18.8111 0.088002 0.459104 -1.697049
2008-04-29 07:17:40 51°13.859 2°55.62 18.8403 0.088002 0.459294 -1.697049
2008-04-29 07:18:41 51°13.953 2°55.547 18.8443 0.088002 0.459339 -1.697049
2008-04-29 07:19:40 51°14.039 2°55.482 18.8582 0.088002 0.459393 -1.697049
2008-04-29 07:20:41 51°14.125 2°55.413 18.8858 0.088002 0.459469 -1.697049
2008-04-29 07:21:40 51°14.232 2°55.312 18.8907 0.088002 0.459545 -1.697049
2008-04-29 07:22:40 51°14.321 2°55.148 18.7776 0.088002 0.459629 -1.697049
2008-04-29 07:23:40 51°14.42 2°54.948 18.8281 0.088002 0.459712 -1.697049
2008-04-29 07:24:40 51°14.53 2°54.699 18.7093 0.088002 0.459796 -1.697049
2008-04-29 07:25:40 51°14.621 2°54.421 18.6941 0.088002 0.459888 -1.731873
2008-04-29 07:26:40 51°14.664 2°54.116 18.5612 0.088002 0.459979 -1.697049
2008-04-29 07:27:40 51°14.706 2°53.81 18.6629 0.087899 0.459521 -1.731873
2008-04-29 07:28:40 51°14.76 2°53.504 18.656 0.087899 0.459651 -1.697049
2008-04-29 07:29:40 51°14.811 2°53.19 18.6477 0.087899 0.459727 -1.697049
2008-04-29 07:30:40 51°14.859 2°52.877 18.6489 0.087899 0.459849 -1.697049
2008-04-29 07:31:40 51°14.911 2°52.567 18.6451 0.087899 0.459964 -1.697049
2008-04-29 07:32:40 51°14.964 2°52.259 18.6513 0.087899 0.460117 -1.697049
2008-04-29 07:33:40 51°15.018 2°51.953 18.6238 0.087899 0.46014 -1.731873
2008-04-29 07:34:40 51°15.072 2°51.645 18.5989 0.087797 0.459673 -1.697049
2008-04-29 07:35:39 51°15.126 2°51.343 18.6169 0.087797 0.45975 -1.697049
2008-04-29 07:36:40 51°15.183 2°51.033 18.6153 0.087797 0.459864 -1.731873
2008-04-29 07:37:39 51°15.238 2°50.735 18.5895 0.087797 0.459948 -1.731873
2008-04-29 07:38:39 51°15.311 2°50.439 18.5972 0.087797 0.460056 -1.697049
2008-04-29 07:39:39 51°15.378 2°50.141 18.5809 0.087797 0.46014 -1.731873
2008-04-29 07:40:39 51°15.44 2°49.836 18.5808 0.087797 0.460255 -1.731873
2008-04-29 07:41:40 51°15.501 2°49.527 18.57 0.087694 0.45978 -1.731873
2008-04-29 07:42:39 51°15.562 2°49.228 18.5759 0.087694 0.459895 -1.731873
2008-04-29 07:43:40 51°15.632 2°48.92 18.5764 0.087694 0.459995 -1.731873
2008-04-29 07:44:39 51°15.698 2°48.621 18.5914 0.087694 0.46011 -1.731873
2008-04-29 07:45:39 51°15.754 2°48.314 18.5454 0.087694 0.460202 -1.731873
2008-04-29 07:46:39 51°15.811 2°48.012 18.5555 0.087591 0.459742 -1.731873
2008-04-29 07:47:39 51°15.872 2°47.71 18.575 0.087591 0.459849 -1.731873
2008-04-29 07:48:39 51°15.934 2°47.411 18.5614 0.087591 0.459949 -1.731873
2008-04-29 07:49:39 51°15.998 2°47.112 18.5538 0.087591 0.460049 -1.731873
2008-04-29 07:50:40 51°16.063 2°46.809 18.5523 0.087591 0.460141 -1.731873
2008-04-29 07:51:39 51°16.133 2°46.516 18.537 0.087488 0.459688 -1.731873
2008-04-29 07:52:40 51°16.198 2°46.21 18.5803 0.087488 0.459781 -1.731873
2008-04-29 07:53:39 51°16.258 2°45.912 18.5687 0.087488 0.459888 -1.731873
2008-04-29 07:54:40 51°16.323 2°45.604 18.5736 0.087488 0.459996 -1.731873
2008-04-29 07:55:39 51°16.393 2°45.309 18.5502 0.087488 0.460111 -1.731873
2008-04-29 07:56:40 51°16.486 2°45.015 18.5544 0.087385 0.459673 -1.731873
2008-04-29 07:57:40 51°16.603 2°44.745 18.5627 0.087385 0.459766 -1.731873
2008-04-29 07:58:39 51°16.717 2°44.477 18.5733 0.087385 0.459874 -1.731873
2008-04-29 07:59:40 51°16.83 2°44.193 18.5754 0.087385 0.459966 -1.731873
2008-04-29 08:00:39 51°16.94 2°43.92 18.5728 0.087385 0.460074 -1.731873
2008-04-29 08:01:40 51°17.051 2°43.637 18.5649 0.087282 0.459636 -1.731873
2008-04-29 08:02:39 51°17.159 2°43.364 18.5689 0.087282 0.459759 -1.731873
2008-04-29 08:03:39 51°17.267 2°43.087 18.5945 0.087282 0.459867 -1.731873
2008-04-29 08:04:39 51°17.383 2°42.819 18.5781 0.087282 0.459967 -1.731873
2008-04-29 08:05:39 51°17.499 2°42.549 18.5793 0.087282 0.460083 -1.731873
2008-04-29 08:06:38 51°17.616 2°42.281 18.5827 0.087282 0.460183 -1.731873
2008-04-29 08:07:36 51°17.738 2°42.019 18.6015 0.087179 0.459706 -1.731873
2008-04-29 08:08:36 51°17.865 2°41.749 18.602 0.087179 0.459814 -1.731873
2008-04-29 08:09:36 51°17.981 2°41.473 18.6164 0.087179 0.459899 -1.731873
2008-04-29 08:10:36 51°18.095 2°41.199 18.6382 0.087179 0.460007 -1.731873
2008-04-29 08:11:36 51°18.208 2°40.926 18.621 0.087179 0.4601 -1.731873
2008-04-29 08:12:36 51°18.325 2°40.66 18.6371 0.087179 0.460201 -1.731873
2008-04-29 08:13:36 51°18.438 2°40.391 18.6273 0.087076 0.459746 -1.731873
2008-04-29 08:14:36 51°18.554 2°40.126 18.6408 0.087076 0.459839 -1.731873
2008-04-29 08:15:36 51°18.677 2°39.86 18.631 0.087076 0.459939 -1.731873
2008-04-29 08:16:36 51°18.8 2°39.591 18.6523 0.087076 0.460048 -1.731873
2008-04-29 08:17:36 51°18.922 2°39.322 18.6401 0.087076 0.460156 -1.731873
2008-04-29 08:18:36 51°19.035 2°39.048 18.622 0.086973 0.459709 -1.731873
2008-04-29 08:19:36 51°19.152 2°38.777 18.6636 0.086973 0.459716 -1.731873
2008-04-29 08:20:36 51°19.265 2°38.503 18.6583 0.086973 0.459856 -1.731873
2008-04-29 08:21:36 51°19.382 2°38.227 18.6652 0.086973 0.460011 -1.731873
2008-04-29 08:22:36 51°19.496 2°37.952 18.6678 0.086973 0.460096 -1.731873
2008-04-29 08:23:36 51°19.612 2°37.679 18.6676 0.086973 0.460205 -1.731873
2008-04-29 08:24:36 51°19.728 2°37.408 18.6734 0.08687 0.459734 -1.731873
2008-04-29 08:25:36 51°19.848 2°37.142 18.6545 0.08687 0.459834 -1.731873
2008-04-29 08:26:36 51°19.949 2°36.957 18.7004 0.08687 0.459928 -1.766697
2008-04-29 08:27:36 51°20.007 2°36.858 18.7312 0.08687 0.460067 -1.731873
2008-04-29 08:28:36 51°20.025 2°36.82 18.7127 0.08687 0.460145 -1.731873
2008-04-29 08:29:36 51°20.043 2°36.828 18.7163 0.086768 0.459673 -1.731873
2008-04-29 08:30:40 51°20.061 2°36.858 18.7175 0.086768 0.459782 -1.731873
2008-04-29 08:31:38 51°20.076 2°36.877 18.7191 0.086768 0.459907 -1.731873
2008-04-29 08:32:37 51°20.09 2°36.897 18.7293 0.086768 0.460039 -1.731873
2008-04-29 08:33:36 51°20.1 2°36.919 18.7318 0.086768 0.460156 -1.731873
2008-04-29 08:34:36 51°20.115 2°36.932 18.7384 0.086768 0.46028 -1.766697
2008-04-29 08:35:36 51°20.135 2°36.94 18.7488 0.086665 0.459847 -1.731873
2008-04-29 08:36:36 51°20.157 2°36.944 18.7441 0.086665 0.459971 -1.766697
2008-04-29 08:37:36 51°20.18 2°36.944 18.7511 0.086665 0.460065 -1.731873
2008-04-29 08:38:36 51°20.202 2°36.941 18.7617 0.086665 0.460151 -1.731873
2008-04-29 08:39:36 51°20.224 2°36.938 18.7608 0.086665 0.460221 -1.731873
2008-04-29 08:40:36 51°20.244 2°36.933 18.7827 0.086562 0.459733 -1.766697
2008-04-29 08:41:36 51°20.246 2°36.889 18.7863 0.086562 0.459834 -1.731873
2008-04-29 08:42:36 51°20.199 2°36.874 18.7577 0.086562 0.45992 -1.731873
2008-04-29 08:43:36 51°20.129 2°36.9 18.775 0.086562 0.460021 -1.731873
2008-04-29 08:44:36 51°20.082 2°36.917 18.7867 0.086562 0.460154 -1.731873
2008-04-29 08:45:36 51°20.063 2°36.929 18.7834 0.086562 0.460271 -1.766697
2008-04-29 08:46:36 51°20.055 2°36.945 18.7943 0.086562 0.460357 -1.766697
2008-04-29 08:47:36 51°20.062 2°36.956 18.8018 0.086459 0.459884 -1.731873
2008-04-29 08:48:36 51°20.074 2°36.965 18.803 0.086459 0.459993 -1.731873
2008-04-29 08:49:36 51°20.088 2°36.969 18.8274 0.086459 0.460079 -1.731873
2008-04-29 08:50:36 51°20.08 2°36.953 18.822 0.086459 0.460173 -1.766697
2008-04-29 08:51:36 51°20.069 2°36.923 18.8343 0.086459 0.460275 -1.731873
2008-04-29 08:52:36 51°20.073 2°36.909 18.8363 0.086459 0.460353 -1.766697
2008-04-29 08:53:36 51°20.093 2°36.912 18.8442 0.086459 0.460447 -1.731873
2008-04-29 08:54:39 51°20.117 2°36.94 18.8442 0.086356 0.459965 -1.731873
2008-04-29 08:55:38 51°20.135 2°36.965 18.8416 0.086356 0.460067 -1.766697
2008-04-29 08:56:37 51°20.152 2°36.986 18.8513 0.086356 0.460208 -1.766697
2008-04-29 08:57:36 51°20.168 2°37.001 18.849 0.086356 0.460294 -1.731873
2008-04-29 08:58:36 51°20.186 2°37.012 18.8532 0.086356 0.460412 -1.766697
2008-04-29 08:59:36 51°20.205 2°37.018 18.8514 0.086356 0.460522 -1.731873
2008-04-29 09:00:36 51°20.224 2°37.018 18.8715 0.086253 0.460055 -1.766697
2008-04-29 09:01:36 51°20.242 2°37.018 18.8765 0.086253 0.460173 -1.766697
2008-04-29 09:02:36 51°20.259 2°37.019 18.8761 0.086253 0.460298 -1.766697
2008-04-29 09:03:36 51°20.277 2°37.02 18.8733 0.086253 0.460416 -1.731873
2008-04-29 09:04:36 51°20.296 2°37.023 18.8811 0.086253 0.460534 -1.766697
2008-04-29 09:05:36 51°20.314 2°37.026 18.8824 0.086253 0.460676 -1.766697
2008-04-29 09:06:36 51°20.334 2°37.031 18.8919 0.086253 0.460802 -1.766697
2008-04-29 09:07:36 51°20.354 2°37.037 18.8874 0.08615 0.460389 -1.766697
2008-04-29 09:08:36 51°20.373 2°37.042 18.9042 0.08615 0.460531 -1.766697
2008-04-29 09:09:36 51°20.392 2°37.047 18.9088 0.08615 0.460681 -1.766697
2008-04-29 09:10:36 51°20.411 2°37.052 18.9135 0.08615 0.460839 -1.731873
2008-04-29 09:11:36 51°20.43 2°37.059 18.9193 0.086047 0.460418 -1.766697
2008-04-29 09:12:36 51°20.45 2°37.063 18.9189 0.086047 0.460584 -1.731873
2008-04-29 09:13:36 51°20.456 2°37.026 18.9342 0.086047 0.460765 -1.766697
2008-04-29 09:14:36 51°20.421 2°37.002 18.9237 0.086047 0.460923 -1.731873
2008-04-29 09:15:36 51°20.36 2°37.004 18.9202 0.086047 0.461058 -1.766697
2008-04-29 09:16:36 51°20.294 2°36.989 18.9317 0.085944 0.460629 -1.766697
2008-04-29 09:17:36 51°20.247 2°36.967 18.9353 0.085944 0.460747 -1.731873
2008-04-29 09:18:36 51°20.212 2°36.945 18.9395 0.085944 0.460858 -1.731873
2008-04-29 09:19:36 51°20.202 2°36.912 18.9514 0.085944 0.460969 -1.766697
2008-04-29 09:20:36 51°20.212 2°36.897 18.9569 0.085944 0.46104 -1.766697
2008-04-29 09:21:36 51°20.225 2°36.885 18.9589 0.085841 0.460579 -1.731873
2008-04-29 09:22:36 51°20.241 2°36.877 18.9599 0.085841 0.460682 -1.731873
2008-04-29 09:23:36 51°20.257 2°36.872 18.9673 0.085841 0.460793 -1.731873
2008-04-29 09:24:36 51°20.275 2°36.868 18.9739 0.085842 0.46092 -1.766697
2008-04-29 09:25:36 51°20.293 2°36.865 18.9778 0.085842 0.461039 -1.766697
2008-04-29 09:26:36 51°20.309 2°36.863 18.9576 0.085842 0.461158 -1.766697
2008-04-29 09:27:39 51°20.327 2°36.859 18.9754 0.085739 0.460688 -1.766697
2008-04-29 09:28:38 51°20.318 2°36.821 18.9929 0.085739 0.460863 -1.766697
2008-04-29 09:29:36 51°20.257 2°36.828 18.9662 0.085739 0.46095 -1.766697
2008-04-29 09:30:36 51°20.214 2°36.849 18.9827 0.085739 0.461101 -1.766697
2008-04-29 09:31:36 51°20.195 2°36.865 18.9879 0.085739 0.461228 -1.731873
2008-04-29 09:32:36 51°20.195 2°36.873 18.9914 0.085636 0.460782 -1.766697
2008-04-29 09:33:36 51°20.205 2°36.879 18.9966 0.085636 0.460901 -1.731873
2008-04-29 09:34:36 51°20.223 2°36.883 18.9922 0.085636 0.46102 -1.731873
2008-04-29 09:35:36 51°20.241 2°36.884 19.0072 0.085636 0.461132 -1.766697
2008-04-29 09:36:36 51°20.246 2°36.929 18.9869 0.085533 0.460677 -1.766697
2008-04-29 09:37:36 51°20.205 2°36.96 19.0132 0.085533 0.460812 -1.766697
2008-04-29 09:38:36 51°20.179 2°36.959 19.024 0.085533 0.46094 -1.766697
2008-04-29 09:39:36 51°20.183 2°36.949 19.0359 0.085533 0.461028 -1.766697
2008-04-29 09:40:36 51°20.195 2°36.935 19.0424 0.085533 0.461139 -1.766697
2008-04-29 09:41:37 51°20.211 2°36.924 19.0438 0.08543 0.460652 -1.731873
2008-04-29 09:42:36 51°20.229 2°36.917 19.0526 0.08543 0.460724 -1.766697
2008-04-29 09:43:37 51°20.218 2°36.862 19.0807 0.08543 0.460851 -1.731873
2008-04-29 09:44:36 51°20.198 2°36.852 19.0454 0.08543 0.460875 -1.766697
2008-04-29 09:45:40 51°20.2 2°36.859 19.0558 0.08543 0.461003 -1.766697
2008-04-29 09:46:40 51°20.212 2°36.873 19.0597 0.08543 0.461075 -1.766697
2008-04-29 09:47:38 51°20.229 2°36.881 19.0693 0.085327 0.460571 -1.731873
2008-04-29 09:48:36 51°20.248 2°36.884 19.067 0.085327 0.460659 -1.766697
2008-04-29 09:49:36 51°20.267 2°36.886 19.0664 0.085327 0.460739 -1.766697
2008-04-29 09:50:36 51°20.286 2°36.885 19.0762 0.085327 0.460811 -1.731873
2008-04-29 09:51:37 51°20.305 2°36.884 19.0786 0.085327 0.460891 -1.766697
2008-04-29 09:52:36 51°20.323 2°36.883 19.0786 0.085327 0.460955 -1.766697
2008-04-29 09:53:36 51°20.341 2°36.881 19.0976 0.085327 0.461035 -1.766697
2008-04-29 09:54:36 51°20.353 2°36.915 19.0826 0.085327 0.461099 -1.731873
2008-04-29 09:55:36 51°20.336 2°36.965 19.0994 0.085327 0.461171 -1.731873
2008-04-29 09:56:36 51°20.307 2°36.975 19.1141 0.085224 0.460658 -1.766697
2008-04-29 09:57:36 51°20.291 2°36.967 19.1181 0.085224 0.460738 -1.766697
2008-04-29 09:58:36 51°20.283 2°36.953 19.1234 0.085224 0.460786 -1.766697
2008-04-29 09:59:36 51°20.28 2°36.936 19.1205 0.085224 0.460858 -1.731873
2008-04-29 10:00:37 51°20.281 2°36.922 19.1262 0.085224 0.460914 -1.766697
2008-04-29 10:01:36 51°20.284 2°36.907 19.127 0.085224 0.460978 -1.731873
2008-04-29 10:02:37 51°20.286 2°36.891 19.1306 0.085224 0.461034 -1.766697
2008-04-29 10:03:36 51°20.267 2°36.874 19.1291 0.085224 0.461099 -1.731873
2008-04-29 10:04:36 51°20.249 2°36.859 19.1259 0.085224 0.461163 -1.766697
2008-04-29 10:05:36 51°20.241 2°36.845 19.1336 0.085121 0.46065 -1.731873
2008-04-29 10:06:36 51°20.236 2°36.839 19.1342 0.085121 0.460714 -1.766697
2008-04-29 10:07:36 51°20.238 2°36.846 19.1353 0.085121 0.46077 -1.766697
2008-04-29 10:08:36 51°20.253 2°36.85 19.1364 0.085121 0.46081 -1.766697
2008-04-29 10:09:36 51°20.271 2°36.848 19.144 0.085121 0.46089 -1.731873
2008-04-29 10:10:36 51°20.277 2°36.894 19.1236 0.085121 0.460938 -1.766697
2008-04-29 10:11:37 51°20.235 2°36.921 19.1502 0.085121 0.461019 -1.766697
2008-04-29 10:12:37 51°20.219 2°36.868 19.1607 0.085121 0.461043 -1.766697
2008-04-29 10:13:37 51°20.226 2°36.805 19.1696 0.085121 0.461123 -1.766697
2008-04-29 10:14:37 51°20.239 2°36.746 19.1586 0.085121 0.461163 -1.766697
2008-04-29 10:15:37 51°20.257 2°36.699 19.1644 0.085121 0.461252 -1.766697
2008-04-29 10:16:37 51°20.272 2°36.666 19.168 0.085018 0.46073 -1.766697
2008-04-29 10:17:37 51°20.284 2°36.641 19.1737 0.085018 0.460786 -1.766697
2008-04-29 10:18:37 51°20.297 2°36.622 19.1738 0.085018 0.460834 -1.766697
2008-04-29 10:19:37 51°20.31 2°36.607 19.174 0.085018 0.460906 -1.766697
2008-04-29 10:20:37 51°20.325 2°36.591 19.1737 0.085018 0.460955 -1.766697
2008-04-29 10:21:37 51°20.325 2°36.548 19.1794 0.085018 0.461027 -1.766697
2008-04-29 10:22:37 51°20.283 2°36.54 19.1556 0.085018 0.461083 -1.766697
2008-04-29 10:23:37 51°20.277 2°36.561 19.1614 0.085018 0.461099 -1.766697
2008-04-29 10:24:37 51°20.291 2°36.561 19.1667 0.085018 0.461164 -1.766697
2008-04-29 10:25:37 51°20.308 2°36.559 19.1682 0.085018 0.461228 -1.766697
2008-04-29 10:26:37 51°20.324 2°36.557 19.1719 0.085018 0.461268 -1.766697
2008-04-29 10:27:37 51°20.339 2°36.552 19.1781 0.084915 0.460818 -1.766697
2008-04-29 10:28:37 51°20.355 2°36.548 19.1758 0.084915 0.46085 -1.766697
2008-04-29 10:29:37 51°20.371 2°36.543 19.1772 0.084915 0.460915 -1.766697
2008-04-29 10:30:37 51°20.387 2°36.537 19.1826 0.084915 0.460971 -1.766697
2008-04-29 10:31:37 51°20.402 2°36.53 19.192 0.084915 0.461028 -1.766697
2008-04-29 10:32:37 51°20.413 2°36.559 19.1703 0.084915 0.461084 -1.766697
2008-04-29 10:33:37 51°20.368 2°36.641 19.2012 0.084915 0.4611 -1.766697
2008-04-29 10:34:37 51°20.258 2°36.828 19.1761 0.084915 0.461189 -1.766697
2008-04-29 10:35:37 51°20.127 2°37.057 19.1873 0.084915 0.461189 -1.766697
2008-04-29 10:36:37 51°19.996 2°37.291 19.1955 0.084915 0.461261 -1.766697
2008-04-29 10:37:37 51°19.873 2°37.536 19.195 0.084915 0.46131 -1.766697
2008-04-29 10:38:37 51°19.748 2°37.776 19.2032 0.084813 0.460811 -1.766697
2008-04-29 10:39:37 51°19.627 2°38.021 19.2012 0.084813 0.460907 -1.766697
2008-04-29 10:40:37 51°19.501 2°38.261 19.2052 0.084813 0.461012 -1.766697
2008-04-29 10:41:37 51°19.378 2°38.504 19.2209 0.084813 0.461125 -1.731873
2008-04-29 10:42:37 51°19.253 2°38.748 19.2198 0.084813 0.461263 -1.766697
2008-04-29 10:43:37 51°19.124 2°38.991 19.2287 0.084813 0.461376 -1.766697
2008-04-29 10:44:37 51°18.998 2°39.236 19.2263 0.084813 0.461505 -1.766697
2008-04-29 10:45:37 51°18.874 2°39.483 19.2252 0.08471 0.461062 -1.766697
2008-04-29 10:46:37 51°18.758 2°39.737 19.2435 0.08471 0.461175 -1.766697
2008-04-29 10:47:37 51°18.642 2°39.989 19.2426 0.08471 0.461313 -1.766697
2008-04-29 10:48:37 51°18.522 2°40.237 19.2272 0.08471 0.46145 -1.766697
2008-04-29 10:49:37 51°18.403 2°40.481 19.2641 0.08471 0.461564 -1.766697
2008-04-29 10:50:37 51°18.286 2°40.728 19.2334 0.084607 0.461144 -1.731873
2008-04-29 10:51:37 51°18.168 2°40.973 19.2379 0.084607 0.461274 -1.766697
2008-04-29 10:52:37 51°18.051 2°41.222 19.248 0.084607 0.461412 -1.766697
2008-04-29 10:53:37 51°17.936 2°41.469 19.2618 0.084607 0.46155 -1.766697
2008-04-29 10:54:37 51°17.817 2°41.712 19.2467 0.084504 0.461097 -1.766697
2008-04-29 10:55:37 51°17.699 2°41.953 19.2762 0.084504 0.461244 -1.731873
2008-04-29 10:56:37 51°17.581 2°42.196 19.2718 0.084504 0.461373 -1.766697
2008-04-29 10:57:37 51°17.459 2°42.437 19.2772 0.084504 0.46152 -1.731873
2008-04-29 10:58:37 51°17.339 2°42.677 19.2985 0.084504 0.46165 -1.731873
2008-04-29 10:59:37 51°17.222 2°42.911 19.2982 0.084401 0.461197 -1.766697
2008-04-29 11:00:37 51°17.108 2°43.155 19.2783 0.084401 0.461327 -1.766697
2008-04-29 11:01:37 51°16.997 2°43.405 19.2986 0.084401 0.461482 -1.766697
2008-04-29 11:02:37 51°16.871 2°43.636 19.2957 0.084401 0.46162 -1.766697
2008-04-29 11:03:37 51°16.727 2°43.843 19.3049 0.084401 0.461767 -1.766697
2008-04-29 11:04:37 51°16.582 2°44.048 19.3097 0.084298 0.461346 -1.766697
2008-04-29 11:05:37 51°16.431 2°44.248 19.3149 0.084298 0.461468 -1.766697
2008-04-29 11:06:37 51°16.283 2°44.446 19.3224 0.084298 0.461648 -1.766697
2008-04-29 11:07:37 51°16.131 2°44.639 19.3261 0.084298 0.461795 -1.766697
2008-04-29 11:08:37 51°15.997 2°44.857 19.3428 0.084195 0.461365 -1.731873
2008-04-29 11:09:37 51°15.916 2°45.134 19.3195 0.084195 0.461512 -1.731873
2008-04-29 11:10:37 51°15.846 2°45.419 19.3346 0.084195 0.461667 -1.766697
2008-04-29 11:11:37 51°15.807 2°45.72 19.2984 0.084195 0.461815 -1.766697
2008-04-29 11:12:37 51°15.761 2°46.019 19.3399 0.084092 0.461368 -1.766697
2008-04-29 11:13:37 51°15.705 2°46.314 19.3446 0.084092 0.461524 -1.766697
2008-04-29 11:14:37 51°15.652 2°46.609 19.3477 0.084092 0.461671 -1.731873
2008-04-29 11:15:37 51°15.595 2°46.902 19.3231 0.084092 0.461835 -1.731873
2008-04-29 11:16:37 51°15.542 2°47.197 19.3477 0.083989 0.46138 -1.766697
2008-04-29 11:17:37 51°15.483 2°47.49 19.3513 0.083989 0.461544 -1.766697
2008-04-29 11:18:37 51°15.43 2°47.783 19.3718 0.083989 0.461683 -1.766697
2008-04-29 11:19:37 51°15.388 2°48.081 19.3684 0.083989 0.461815 -1.766697
2008-04-29 11:20:37 51°15.342 2°48.379 19.3693 0.083886 0.461376 -1.731873
2008-04-29 11:21:37 51°15.29 2°48.676 19.36 0.083886 0.461515 -1.766697
2008-04-29 11:22:37 51°15.239 2°48.974 19.3661 0.083886 0.461679 -1.766697
2008-04-29 11:23:37 51°15.203 2°49.275 19.399 0.083886 0.461811 -1.766697
2008-04-29 11:24:37 51°15.167 2°49.578 19.388 0.083784 0.461371 -1.766697
2008-04-29 11:25:37 51°15.135 2°49.82 19.4364 0.083784 0.461503 -1.766697
2008-04-29 11:26:37 51°15.114 2°50.069 19.4054 0.083784 0.461643 -1.766697
2008-04-29 11:27:37 51°15.09 2°50.371 19.4131 0.083784 0.461783 -1.766697
2008-04-29 11:28:37 51°15.062 2°50.675 19.4133 0.083681 0.461318 -1.766697
2008-04-29 11:29:37 51°15.032 2°50.977 19.4325 0.083681 0.461474 -1.766697
2008-04-29 11:30:37 51°15.003 2°51.212 19.4566 0.083681 0.461606 -1.766697
2008-04-29 11:31:37 51°14.98 2°51.393 19.4556 0.083681 0.461746 -1.766697
2008-04-29 11:32:37 51°14.958 2°51.591 19.4287 0.083578 0.461289 -1.766697
2008-04-29 11:33:37 51°14.933 2°51.814 19.4586 0.083578 0.461429 -1.766697
2008-04-29 11:34:37 51°14.904 2°52.037 19.4492 0.083578 0.461545 -1.766697
2008-04-29 11:35:37 51°14.862 2°52.253 19.4854 0.083578 0.46166 -1.766697
2008-04-29 11:36:37 51°14.799 2°52.508 19.4454 0.083475 0.461178 -1.766697
2008-04-29 11:37:37 51°14.733 2°52.79 19.4487 0.083475 0.461319 -1.731873
2008-04-29 11:38:37 51°14.655 2°53.067 19.4565 0.083475 0.461426 -1.766697
2008-04-29 11:39:37 51°14.589 2°53.349 19.4957 0.083372 0.460976 -1.766697
2008-04-29 11:40:37 51°14.536 2°53.618 19.4933 0.083372 0.461117 -1.766697
2008-04-29 11:41:37 51°14.496 2°53.85 19.5371 0.083372 0.461266 -1.766697
2008-04-29 11:42:37 51°14.499 2°54.093 19.5403 0.083372 0.461406 -1.766697
2008-04-29 11:43:37 51°14.527 2°54.344 19.4974 0.083269 0.46094 -1.766697
2008-04-29 11:44:37 51°14.507 2°54.607 19.4979 0.083269 0.461064 -1.731873
2008-04-29 11:45:37 51°14.445 2°54.807 19.5732 0.083269 0.46118 -1.766697
2008-04-29 11:46:37 51°14.38 2°54.997 19.5456 0.083269 0.461287 -1.766697
2008-04-29 11:47:37 51°14.305 2°55.174 19.536 0.083269 0.461403 -1.766697
2008-04-29 11:48:37 51°14.237 2°55.305 19.5748 0.083166 0.460911 -1.766697
2008-04-29 11:49:41 51°14.151 2°55.403 19.5983 0.083166 0.461077 -1.766697
2008-04-29 11:50:41 51°14.065 2°55.487 19.5906 0.083166 0.46116 -1.766697
2008-04-29 11:51:41 51°13.968 2°55.559 19.6024 0.083166 0.461251 -1.766697
2008-04-29 11:52:41 51°13.864 2°55.618 19.6063 0.083166 0.461351 -1.766697
2008-04-29 11:53:41 51°13.784 2°55.677 19.6658 0.083063 0.460866 -1.766697
2008-04-29 11:54:41 51°13.74 2°55.763 19.6303 0.083063 0.460966 -1.766697
2008-04-29 11:55:40 51°13.697 2°55.853 19.6337 0.083063 0.461057 -1.766697
2008-04-29 11:56:40 51°13.67 2°55.933 19.6503 0.083063 0.461149 -1.766697
2008-04-29 11:57:38 51°13.666 2°55.95 19.6547 0.083063 0.461207 -1.731873